Time,TemperatureF,DewpointF,PressureIn,WindDirection,WindDirectionDegrees,WindSpeedMPH,WindSpeedGustMPH,Humidity,HourlyPrecipIn,Conditions,Clouds,dailyrainin,SoftwareType,DateUTC
2013-06-24 00:11:00,69.8,66.0,30.08,SW,214,0.0,0.0,88,0.00,,,0.00,weatherlink.com 1.10,2013-06-24 04:11:00,
2013-06-24 00:26:00,70.0,66.0,30.09,SW,214,0.0,0.0,88,0.00,,,0.00,weatherlink.com 1.10,2013-06-24 04:26:00,
2013-06-24 00:41:00,70.0,67.0,30.08,SW,228,0.0,1.0,89,0.00,,,0.00,weatherlink.com 1.10,2013-06-24 04:41:00,
2013-06-24 00:56:00,71.0,68.0,30.08,SW,231,0.0,2.0,91,0.00,,,0.00,weatherlink.com 1.10,2013-06-24 04:56:00,
2013-06-24 01:11:00,71.5,69.0,30.08,SSW,207,1.0,3.0,91,0.00,,,0.00,weatherlink.com 1.10,2013-06-24 05:11:00,
2013-06-24 01:26:00,71.8,68.0,30.08,WSW,244,2.0,3.0,88,0.00,,,0.00,weatherlink.com 1.10,2013-06-24 05:26:00,
2013-06-24 01:41:00,72.1,68.0,30.07,WSW,241,1.0,4.0,87,0.00,,,0.00,weatherlink.com 1.10,2013-06-24 05:41:00,
2013-06-24 02:11:00,72.4,68.0,30.07,WSW,243,2.0,3.0,87,0.00,,,0.00,weatherlink.com 1.10,2013-06-24 06:11:00,
2013-06-24 02:26:00,72.4,69.0,30.07,WSW,250,0.0,1.0,88,0.00,,,0.00,weatherlink.com 1.10,2013-06-24 06:26:00,
2013-06-24 02:41:00,72.2,69.0,30.07,SW,224,1.0,1.0,88,0.00,,,0.00,weatherlink.com 1.10,2013-06-24 06:41:00,
2013-06-24 02:56:00,72.0,68.0,30.07,SW,231,1.0,2.0,87,0.00,,,0.00,weatherlink.com 1.10,2013-06-24 06:56:00,
2013-06-24 03:11:00,71.8,68.0,30.07,SSW,209,0.0,1.0,88,0.00,,,0.00,weatherlink.com 1.10,2013-06-24 07:11:00,
2013-06-24 03:26:00,71.2,68.0,30.07,SSW,209,0.0,1.0,88,0.00,,,0.00,weatherlink.com 1.10,2013-06-24 07:26:00,
2013-06-24 03:56:00,70.1,66.0,30.07,SSW,203,0.0,0.0,87,0.00,,,0.00,weatherlink.com 1.10,2013-06-24 07:56:00,
2013-06-24 04:11:00,69.8,66.0,30.07,SSW,202,0.0,0.0,87,0.00,,,0.00,weatherlink.com 1.10,2013-06-24 08:11:00,
2013-06-24 04:26:00,69.5,66.0,30.07,SSW,203,0.0,0.0,87,0.00,,,0.00,weatherlink.com 1.10,2013-06-24 08:26:00,
2013-06-24 04:41:00,69.5,66.0,30.07,SSW,203,0.0,0.0,88,0.00,,,0.00,weatherlink.com 1.10,2013-06-24 08:41:00,
2013-06-24 05:11:00,70.3,67.0,30.07,SW,224,0.0,2.0,90,0.00,,,0.00,weatherlink.com 1.10,2013-06-24 09:11:00,
2013-06-24 05:26:00,70.6,68.0,30.08,SW,229,1.0,1.0,90,0.00,,,0.00,weatherlink.com 1.10,2013-06-24 09:26:00,
2013-06-24 05:41:00,70.6,67.0,30.08,SSW,204,1.0,2.0,89,0.00,,,0.00,weatherlink.com 1.10,2013-06-24 09:41:00,
2013-06-24 05:56:00,70.9,68.0,30.08,SW,214,1.0,1.0,89,0.00,,,0.00,weatherlink.com 1.10,2013-06-24 09:56:00,
2013-06-24 06:11:00,71.5,68.0,30.08,WSW,238,2.0,2.0,89,0.00,,,0.00,weatherlink.com 1.10,2013-06-24 10:11:00,
2013-06-24 06:26:00,72.2,68.0,30.08,SW,227,4.0,4.0,87,0.00,,,0.00,weatherlink.com 1.10,2013-06-24 10:26:00,
2013-06-24 06:41:00,73.0,69.0,30.08,SSW,211,2.0,3.0,88,0.00,,,0.00,weatherlink.com 1.10,2013-06-24 10:41:00,
2013-06-24 07:11:00,74.2,71.0,30.08,SSW,210,3.0,5.0,89,0.00,,,0.00,weatherlink.com 1.10,2013-06-24 11:11:00,
2013-06-24 07:26:00,74.6,71.0,30.08,SW,228,2.0,7.0,89,0.00,,,0.00,weatherlink.com 1.10,2013-06-24 11:26:00,
2013-06-24 07:41:00,75.4,72.0,30.09,WSW,241,2.0,7.0,90,0.00,,,0.00,weatherlink.com 1.10,2013-06-24 11:41:00,
2013-06-24 07:57:00,76.3,73.0,30.08,SW,226,2.0,5.0,89,0.00,,,0.00,weatherlink.com 1.10,2013-06-24 11:57:00,
2013-06-24 08:27:00,78.3,75.0,30.09,WSW,257,1.0,7.0,88,0.00,,,0.00,weatherlink.com 1.10,2013-06-24 12:27:00,
2013-06-24 08:42:00,79.0,75.0,30.09,SW,234,3.0,9.0,88,0.00,,,0.00,weatherlink.com 1.10,2013-06-24 12:42:00,
2013-06-24 08:57:00,79.6,75.0,30.09,WSW,252,5.0,8.0,86,0.00,,,0.00,weatherlink.com 1.10,2013-06-24 12:57:00,
2013-06-24 09:12:00,80.8,76.0,30.09,WSW,252,6.0,8.0,84,0.00,,,0.00,weatherlink.com 1.10,2013-06-24 13:12:00,
2013-06-24 09:27:00,81.2,76.0,30.09,SSW,207,5.0,10.0,83,0.00,,,0.00,weatherlink.com 1.10,2013-06-24 13:27:00,
2013-06-24 09:42:00,81.9,75.0,30.08,West,264,2.0,8.0,80,0.00,,,0.00,weatherlink.com 1.10,2013-06-24 13:42:00,
2013-06-24 09:57:00,82.8,75.0,30.08,SW,231,8.0,9.0,78,0.00,,,0.00,weatherlink.com 1.10,2013-06-24 13:57:00,
2013-06-24 10:12:00,83.5,76.0,30.07,WNW,291,3.0,7.0,78,0.00,,,0.00,weatherlink.com 1.10,2013-06-24 14:12:00,
2013-06-24 10:27:00,84.5,76.0,30.07,SW,232,2.0,8.0,75,0.00,,,0.00,weatherlink.com 1.10,2013-06-24 14:27:00,
2013-06-24 10:42:00,85.2,75.0,30.07,WSW,245,4.0,8.0,72,0.00,,,0.00,weatherlink.com 1.10,2013-06-24 14:42:00,
2013-06-24 10:57:00,86.5,76.0,30.07,West,265,2.0,6.0,70,0.00,,,0.00,weatherlink.com 1.10,2013-06-24 14:57:00,
2013-06-24 11:12:00,87.1,76.0,30.07,SW,223,3.0,9.0,69,0.00,,,0.00,weatherlink.com 1.10,2013-06-24 15:12:00,
2013-06-24 11:27:00,87.3,75.0,30.07,WSW,248,4.0,8.0,66,0.00,,,0.00,weatherlink.com 1.10,2013-06-24 15:27:00,
2013-06-24 11:42:00,88.2,74.0,30.07,SW,230,5.0,7.0,63,0.00,,,0.00,weatherlink.com 1.10,2013-06-24 15:42:00,
2013-06-24 11:57:00,89.0,74.0,30.07,West,264,3.0,8.0,62,0.00,,,0.00,weatherlink.com 1.10,2013-06-24 15:57:00,
2013-06-24 12:27:00,89.9,72.0,30.07,SW,219,2.0,8.0,56,0.00,,,0.00,weatherlink.com 1.10,2013-06-24 16:27:00,
2013-06-24 12:42:00,90.5,71.0,30.06,West,259,2.0,11.0,52,0.00,,,0.00,weatherlink.com 1.10,2013-06-24 16:42:00,
2013-06-24 13:12:00,90.6,71.0,30.06,WNW,289,0.0,0.0,53,0.00,,,0.00,weatherlink.com 1.10,2013-06-24 17:12:00,
2013-06-24 13:27:00,91.9,73.0,30.05,SW,236,0.0,0.0,55,0.00,,,0.00,weatherlink.com 1.10,2013-06-24 17:27:00,
2013-06-24 13:42:00,91.1,72.0,30.04,WNW,285,0.0,0.0,54,0.00,,,0.00,weatherlink.com 1.10,2013-06-24 17:42:00,
2013-06-24 13:58:00,92.0,73.0,30.03,WSW,253,0.0,0.0,54,0.00,,,0.00,weatherlink.com 1.10,2013-06-24 17:58:00,
2013-06-24 14:13:00,92.1,73.0,30.03,SW,223,0.0,0.0,54,0.00,,,0.00,weatherlink.com 1.10,2013-06-24 18:13:00,
2013-06-24 14:28:00,92.2,71.0,30.01,SW,221,0.0,0.0,50,0.00,,,0.00,weatherlink.com 1.10,2013-06-24 18:28:00,
2013-06-24 14:43:00,91.7,73.0,30.01,WSW,238,0.0,0.0,55,0.00,,,0.00,weatherlink.com 1.10,2013-06-24 18:43:00,
2013-06-24 14:58:00,91.9,74.0,30.01,SW,214,0.0,0.0,57,0.00,,,0.00,weatherlink.com 1.10,2013-06-24 18:58:00,
2013-06-24 15:13:00,91.2,74.0,30.01,South,175,0.0,0.0,58,0.00,,,0.00,weatherlink.com 1.10,2013-06-24 19:13:00,
2013-06-24 15:28:00,92.0,74.0,30.00,WSW,248,0.0,1.0,55,0.00,,,0.00,weatherlink.com 1.10,2013-06-24 19:28:00,
2013-06-24 15:58:00,82.2,62.0,30.02,NNW,340,6.0,19.0,50,0.00,,,0.00,weatherlink.com 1.10,2013-06-24 19:58:00,
2013-06-24 16:13:00,78.5,67.0,30.02,West,281,6.0,13.0,67,0.00,,,0.00,weatherlink.com 1.10,2013-06-24 20:13:00,
2013-06-24 16:28:00,77.6,68.0,30.01,WSW,251,0.0,7.0,72,0.00,,,0.00,weatherlink.com 1.10,2013-06-24 20:28:00,
2013-06-24 16:43:00,79.8,69.0,30.00,SE,139,1.0,5.0,69,0.00,,,0.00,weatherlink.com 1.10,2013-06-24 20:43:00,
2013-06-24 17:13:00,82.7,72.0,29.99,SSW,196,3.0,4.0,69,0.00,,,0.00,weatherlink.com 1.10,2013-06-24 21:13:00,
2013-06-24 17:28:00,84.5,71.0,30.00,SSW,198,0.0,2.0,64,0.00,,,0.00,weatherlink.com 1.10,2013-06-24 21:28:00,
2013-06-24 17:43:00,83.0,72.0,30.00,NE,56,6.0,9.0,69,0.00,,,0.00,weatherlink.com 1.10,2013-06-24 21:43:00,
2013-06-24 18:13:00,79.9,71.0,30.00,ENE,68,1.0,5.0,74,0.00,,,0.00,weatherlink.com 1.10,2013-06-24 22:13:00,
2013-06-24 18:28:00,79.6,71.0,30.00,ENE,70,3.0,4.0,76,0.00,,,0.00,weatherlink.com 1.10,2013-06-24 22:28:00,
2013-06-24 18:43:00,78.8,72.0,30.00,East,83,3.0,4.0,80,0.00,,,0.00,weatherlink.com 1.10,2013-06-24 22:43:00,
2013-06-24 18:58:00,78.2,73.0,30.00,East,93,0.0,4.0,83,0.00,,,0.00,weatherlink.com 1.10,2013-06-24 22:58:00,
2013-06-24 19:28:00,78.3,73.0,30.00,SSE,147,0.0,1.0,83,0.00,,,0.00,weatherlink.com 1.10,2013-06-24 23:28:00,
2013-06-24 19:58:00,77.8,73.0,30.00,SSW,210,1.0,1.0,86,0.00,,,0.00,weatherlink.com 1.10,2013-06-24 23:58:00,
2013-06-24 20:13:00,77.0,73.0,29.99,SE,146,0.0,1.0,88,0.00,,,0.00,weatherlink.com 1.10,2013-06-25 00:13:00,
2013-06-24 20:43:00,76.2,73.0,29.99,SW,221,0.0,1.0,88,0.00,,,0.00,weatherlink.com 1.10,2013-06-25 00:43:00,
2013-06-24 21:13:00,74.7,69.0,30.02,NNE,15,6.0,15.0,82,0.00,,,0.00,weatherlink.com 1.10,2013-06-25 01:13:00,
2013-06-24 21:28:00,73.0,68.0,30.02,North,8,6.0,11.0,83,0.00,,,0.00,weatherlink.com 1.10,2013-06-25 01:28:00,
2013-06-24 21:43:00,71.4,67.0,30.02,NE,38,2.0,10.0,85,0.00,,,0.00,weatherlink.com 1.10,2013-06-25 01:43:00,
2013-06-24 21:58:00,70.6,67.0,30.01,NE,47,1.0,3.0,87,0.00,,,0.00,weatherlink.com 1.10,2013-06-25 01:58:00,
2013-06-24 22:13:00,70.0,66.0,30.01,NE,47,1.0,1.0,87,0.00,,,0.00,weatherlink.com 1.10,2013-06-25 02:13:00,
2013-06-24 22:28:00,69.4,66.0,30.00,NE,47,0.0,0.0,89,0.00,,,0.00,weatherlink.com 1.10,2013-06-25 02:28:00,
2013-06-24 22:43:00,68.8,66.0,30.00,SSE,166,0.0,2.0,89,0.00,,,0.00,weatherlink.com 1.10,2013-06-25 02:43:00,
2013-06-24 22:58:00,68.3,65.0,30.00,NNW,333,0.0,0.0,89,0.00,,,0.00,weatherlink.com 1.10,2013-06-25 02:58:00,
2013-06-24 23:13:00,67.9,65.0,30.00,WSW,238,0.0,0.0,89,0.00,,,0.00,weatherlink.com 1.10,2013-06-25 03:13:00,
2013-06-24 23:43:00,67.5,64.0,30.00,SSE,154,0.0,0.0,88,0.00,,,0.00,weatherlink.com 1.10,2013-06-25 03:43:00,
2013-06-24 23:58:00,67.5,64.0,30.00,SSE,153,0.0,0.0,88,0.00,,,0.00,weatherlink.com 1.10,2013-06-25 03:58:00,